Theta_e
284 282 280 278 281 281 282 283 284 291 295 293 294 295 297 300 300 301 302 303 313 314 307 309 319 331 333 334 333 335 334 335 334 333 331 331 331 334 335 335 333 329 329 329
280 278 280 281 281 281 282 281 283 290 294 294 294 293 297 299 299 300 301 302 310 303 303 304 306 314 329 330 331 333 332 333 332 332 333 333 331 333 334 335 334 331 329 330
275 278 280 279 279 278 280 280 282 284 291 294 293 290 294 296 296 296 292 294 299 299 298 299 299 299 307 312 325 329 331 331 332 333 333 331 331 331 331 332 333 333 330 331
277 280 278 278 277 277 274 284 283 283 283 283 292 282 290 293 293 294 287 285 286 289 291 292 294 295 297 302 309 316 329 329 331 332 331 329 328 326 329 330 334 334 333 330
274 275 275 274 274 277 275 281 280 280 281 282 286 284 289 294 290 290 284 282 283 284 286 288 289 291 294 298 303 307 314 317 326 331 331 330 327 328 329 330 330 333 332 331
275 281 278 276 277 279 278 280 281 282 281 276 283 284 285 290 291 286 281 280 281 282 283 285 288 289 290 295 298 304 307 309 315 327 329 329 329 330 327 327 327 328 332 331
273 275 277 277 274 277 274 276 272 272 272 274 285 284 273 278 283 284 278 277 278 279 280 281 283 286 287 289 294 299 302 303 307 316 325 329 330 331 330 327 326 325 327 328
267 265 272 276 271 268 270 271 270 268 271 275 283 280 272 277 278 278 277 276 277 277 278 279 280 281 283 286 289 294 298 298 302 307 312 321 326 326 328 332 332 328 327 327
266 266 275 274 274 272 269 269 270 268 273 273 272 269 275 277 275 275 274 274 274 275 276 277 279 279 281 283 285 288 292 294 297 302 305 311 319 321 321 323 328 331 331 331
270 265 272 273 275 273 269 271 266 269 266 269 267 265 266 272 272 273 272 272 273 274 275 276 277 278 279 281 283 285 289 290 294 299 302 304 309 314 318 320 320 324 325 325
274 270 269 272 267 265 267 265 266 266 267 266 267 262 272 272 273 272 272 273 273 274 274 275 276 277 278 279 280 282 284 286 287 294 298 302 304 308 312 314 315 317 320 322
274 270 265 265 269 270 269 266 265 261 264 269 268 261 273 273 274 274 274 275 275 275 275 275 275 276 276 277 278 279 281 282 285 288 292 294 298 303 304 305 307 310 314 317
273 269 264 265 267 270 267 267 266 266 265 264 263 263 274 273 273 274 274 274 275 275 275 275 275 275 275 276 276 277 278 280 282 285 287 289 292 295 298 299 301 304 307 310
275 269 266 262 262 266 264 266 266 265 264 264 264 263 266 268 270 272 273 275 275 275 275 275 275 275 275 276 276 277 278 279 281 282 284 284 286 289 292 295 297 300 303 306
272 266 267 266 267 267 266 265 265 262 263 262 263 262 265 267 268 270 272 274 274 274 274 275 275 275 275 276 276 277 277 278 280 280 281 281 284 286 289 291 294 297 300 303
272 267 268 266 268 267 265 266 266 264 264 264 264 263 269 270 271 269 270 271 272 272 273 274 275 275 275 275 276 277 277 278 279 279 279 280 282 283 285 287 290 294 296 298
269 267 267 263 267 266 263 263 265 265 265 265 262 264 269 268 268 268 269 270 270 271 272 273 274 275 275 275 276 276 277 278 278 278 279 279 280 281 283 285 288 290 292 295
267 267 268 264 266 258 264 268 267 266 266 267 266 267 268 269 270 270 271 270 270 271 271 272 273 274 275 276 276 277 278 277 277 277 278 279 279 280 282 284 285 287 289 292
270 267 264 262 262 263 264 266 265 264 263 267 266 267 268 269 270 270 271 272 271 271 272 272 274 274 275 275 276 277 277 277 277 276 277 278 279 279 281 282 283 285 286 288
270 269 266 264 260 258 264 267 269 268 262 267 267 267 267 268 266 267 271 272 272 272 273 272 273 274 274 274 275 275 275 276 275 276 276 278 278 279 280 281 282 284 285 287
265 265 263 263 262 263 267 268 269 260 261 268 268 268 267 266 268 269 271 271 272 272 272 273 273 273 273 274 274 273 274 273 275 276 277 278 278 279 280 280 282 283 284 285
262 261 263 264 261 259 269 268 263 266 269 268 268 268 268 269 269 270 270 270 271 271 271 272 272 272 273 273 273 272 273 274 275 275 276 277 278 279 280 279 281 281 283 284
262 265 263 264 265 269 270 268 270 268 267 269 268 269 269 268 269 269 270 270 271 271 271 272 272 272 273 273 272 271 272 274 274 274 275 275 277 279 278 278 279 279 282 283
268 266 264 263 268 268 269 270 269 268 267 269 269 268 269 268 269 269 270 270 270 271 271 272 271 271 271 272 272 272 272 273 273 273 274 275 275 277 277 278 279 279 280 281
267 265 266 265 268 269 269 270 270 269 267 266 267 266 266 267 267 268 268 269 270 270 271 271 270 270 271 272 272 272 273 273 272 273 274 274 275 275 276 277 277 278 279 280
267 267 265 265 269 269 270 270 267 264 264 264 264 265 267 266 264 267 267 268 268 267 269 269 269 270 270 271 271 271 272 272 272 272 273 274 274 274 275 275 276 280 279 280
Wind_Speed
8 8 5 12 12 16 14 15 14 26 25 32 28 23 25 13 8 18 18 17 15 13 4 5 2 15 14 15 17 18 16 16 12 10 11 10 9 7 8 8 12 11 10 9
9 8 10 14 14 17 15 13 12 17 23 29 28 24 21 25 9 3 9 20 14 8 5 7 8 5 15 15 14 17 17 17 13 11 10 10 9 6 7 8 10 12 12 10
9 10 16 15 14 14 15 11 11 12 13 23 26 22 23 9 9 6 11 12 12 10 7 8 9 11 8 7 9 12 16 17 13 14 10 8 8 6 6 9 9 10 11 11
5 14 14 14 9 15 11 9 11 13 10 17 25 15 19 19 14 7 7 10 12 12 10 10 9 12 11 9 6 3 12 14 12 15 13 15 12 10 8 10 7 8 11 10
13 12 16 14 14 16 10 18 15 15 10 11 22 17 20 22 19 13 6 10 12 11 11 11 11 12 11 11 8 6 5 7 8 14 14 12 11 9 6 7 8 10 8 10
13 6 10 12 22 4 19 13 13 9 7 10 15 17 22 20 16 14 8 11 12 11 12 12 11 12 12 11 10 8 4 5 4 10 12 14 14 12 10 9 8 6 7 8
12 6 12 21 17 8 22 8 5 10 8 5 14 19 12 15 17 15 11 10 11 11 13 13 14 10 13 14 13 8 6 9 7 5 7 10 11 14 14 12 9 8 7 5
11 6 13 13 7 11 14 7 7 9 5 12 14 10 7 9 12 15 14 12 12 13 12 12 14 14 12 13 14 11 6 10 11 9 8 4 6 4 4 12 11 9 8 8
8 9 4 10 6 14 10 5 8 7 9 7 7 5 11 10 12 14 13 13 13 13 13 14 12 15 13 13 12 12 12 12 10 8 6 6 5 7 6 2 4 7 10 9
4 10 3 7 8 11 6 7 2 5 6 3 7 8 7 6 11 12 12 12 11 12 13 12 12 11 13 12 11 12 12 12 10 7 7 6 6 6 6 4 5 4 6 6
9 5 12 6 9 12 11 7 5 6 5 5 2 5 11 12 11 11 11 10 10 11 11 11 12 13 10 12 12 13 13 14 10 10 9 9 7 8 7 7 6 4 3 6
6 5 11 3 3 3 5 9 6 5 7 4 2 4 9 13 12 12 12 11 9 10 10 10 11 12 15 13 13 11 13 12 11 8 10 10 9 9 8 8 6 5 4 2
10 4 9 5 5 4 6 14 11 8 6 3 4 6 7 10 12 12 12 11 11 12 11 10 10 11 12 11 12 14 12 12 14 13 9 11 11 10 8 8 7 6 5 4
9 6 7 7 4 6 11 15 14 9 4 4 8 10 11 13 13 13 13 12 12 12 13 11 11 10 11 7 12 12 12 10 12 10 12 14 8 9 6 7 8 7 6 5
9 4 4 2 5 5 8 14 13 12 10 7 8 10 9 9 10 12 12 12 13 14 14 14 12 11 7 12 12 9 15 10 13 11 12 12 12 11 9 9 8 7 6 5
8 6 6 12 6 6 6 10 12 8 9 6 5 6 6 7 7 10 12 12 13 13 13 13 13 14 13 13 8 14 11 13 11 11 11 12 10 10 11 10 8 7 7 7
8 8 8 4 0 6 6 7 8 5 7 7 5 5 7 6 6 8 9 10 11 12 12 13 13 12 13 13 11 10 10 12 7 10 11 11 10 12 10 9 9 8 7 6
9 9 4 8 8 4 6 3 5 4 4 6 4 5 6 7 4 4 6 8 8 9 10 11 11 11 10 10 11 10 9 9 11 9 10 9 11 11 9 8 9 8 7 6
3 5 5 4 8 4 5 4 5 6 3 3 5 6 6 7 6 3 5 6 7 7 6 7 9 9 9 10 10 9 10 10 10 11 10 10 9 7 9 9 8 8 7 6
5 7 6 6 5 4 6 5 2 3 4 2 4 5 7 9 5 6 7 6 6 7 7 6 7 9 9 10 10 9 8 9 10 10 10 10 9 9 8 9 9 7 7 7
6 5 5 7 5 5 4 3 1 6 6 2 3 4 6 5 5 8 7 7 6 6 7 8 7 6 8 9 9 9 8 9 10 10 9 8 8 8 7 8 7 6 7 6
4 5 6 5 4 2 2 2 4 4 3 2 2 3 4 6 6 6 7 7 7 6 6 6 5 6 7 8 8 9 9 9 10 10 9 8 8 6 6 8 7 7 6 6
2 3 4 4 5 2 2 3 1 0 3 4 3 3 4 7 5 5 6 6 6 6 7 7 6 6 5 6 7 8 9 10 10 10 10 9 9 7 8 7 8 6 6 5
7 5 4 4 1 4 3 4 5 6 7 3 3 4 5 6 6 6 6 5 5 5 5 6 7 6 6 6 7 7 8 9 9 9 9 9 9 9 8 6 6 6 5 5
3 6 5 7 11 6 9 8 6 7 6 5 5 5 6 5 7 7 6 6 5 5 4 4 5 6 7 6 6 7 7 8 8 9 8 7 7 8 7 6 6 5 5 5
8 6 4 5 0 4 6 3 4 5 7 8 7 6 7 7 7 6 7 5 5 5 5 5 5 6 5 6 6 6 6 7 7 7 6 6 6 7 6 7 6 6 4 8
Wind_Direction
312 276 273 342 310 307 296 289 293 243 203 223 221 231 215 214 223 218 223 207 203 131 84 31 243 162 159 161 155 161 158 166 151 153 156 162 165 170 161 159 152 158 161 167
333 250 359 324 308 306 291 285 288 277 226 213 215 222 221 216 203 246 253 213 144 114 92 55 28 5 162 157 163 166 165 162 162 164 163 166 157 161 156 159 162 158 165 169
315 347 338 326 315 344 296 270 276 274 272 243 220 223 210 144 138 91 44 28 70 78 74 58 49 24 20 81 162 173 168 171 169 165 151 143 146 145 172 174 172 165 176 160
307 355 346 322 324 356 308 302 301 277 280 217 209 211 216 165 160 147 59 44 42 46 49 44 35 37 7 21 37 41 168 166 175 167 161 160 170 167 177 179 168 168 172 169
356 346 350 355 338 313 284 317 300 294 303 272 214 220 200 178 174 160 82 60 48 40 43 39 31 42 14 6 22 25 104 109 182 169 168 163 160 169 161 163 163 167 177 168
336 26 11 354 320 41 343 286 288 269 259 229 222 196 216 185 185 128 91 60 50 40 39 33 29 42 28 14 25 25 49 81 67 153 167 172 170 166 161 160 168 180 172 174
341 76 18 8 346 333 356 323 237 216 221 240 193 198 61 31 10 106 98 67 51 42 39 32 27 28 25 18 21 19 22 54 39 64 133 169 172 179 167 172 171 162 168 160
347 345 16 6 33 313 301 324 319 233 190 215 234 197 88 55 52 66 63 60 52 42 37 36 29 34 16 24 18 12 28 47 45 41 48 85 127 124 154 179 161 166 172 177
321 335 14 52 17 12 347 336 341 284 218 265 90 76 72 66 59 54 53 50 44 37 33 32 26 32 18 24 16 6 34 31 40 44 46 60 95 118 111 97 132 159 165 164
314 299 337 34 2 20 13 352 242 211 273 250 82 57 18 28 60 51 46 43 41 38 35 30 31 16 25 22 15 12 31 29 23 42 56 54 76 84 100 103 89 131 126 138
300 279 318 5 28 1 13 17 335 287 273 321 95 66 325 52 59 66 57 46 41 41 36 31 33 38 15 30 20 22 24 29 21 11 54 62 53 77 75 82 68 57 124 160
338 303 308 27 118 166 9 18 351 296 11 349 60 69 35 47 55 56 56 57 55 50 41 37 30 32 22 21 27 23 21 19 11 5 27 48 34 65 74 77 68 55 92 117
339 339 311 182 195 326 4 14 354 305 246 2 307 105 51 61 54 51 55 51 45 42 44 37 34 35 14 13 14 29 14 7 16 21 355 41 37 47 46 54 50 49 44 41
321 303 344 344 33 311 358 7 12 353 299 31 40 93 38 31 36 38 38 43 42 42 35 37 30 30 19 10 33 18 23 350 27 26 17 49 10 31 17 44 41 34 23 32
357 282 320 284 242 310 4 10 20 21 11 359 83 70 40 34 28 24 26 29 35 33 34 29 28 30 3 26 31 343 26 358 22 23 21 24 17 20 359 29 33 22 22 16
350 306 294 275 213 246 297 15 16 15 0 84 111 76 17 31 40 29 25 21 25 24 22 24 23 19 22 27 356 19 352 23 13 21 27 19 16 17 0 4 22 26 16 14
325 329 313 308 136 289 202 18 2 33 20 342 5 16 344 8 11 21 12 17 17 14 12 13 16 18 14 10 14 14 7 20 11 13 29 8 14 19 352 354 10 19 10 358
324 324 300 301 293 234 72 45 317 331 29 15 6 359 342 334 340 349 9 0 11 7 5 3 3 4 11 13 5 1 16 20 25 14 25 12 14 11 356 355 12 0 358 349
354 303 313 295 311 107 150 41 351 342 99 24 344 350 345 331 300 189 24 356 353 356 4 352 350 352 355 7 6 1 12 17 20 8 10 12 23 356 344 7 357 354 344 345
320 235 268 329 301 324 41 26 4 268 193 31 337 346 343 328 289 73 358 346 344 344 353 354 350 344 358 1 358 1 11 18 13 2 357 355 2 359 351 2 340 346 336 331
323 339 300 319 314 115 56 0 300 247 65 360 337 340 338 342 355 331 332 330 341 337 341 344 347 351 352 354 353 358 3 11 358 351 350 356 356 346 347 349 327 344 329 327
292 321 340 300 268 231 35 211 274 20 337 328 313 321 320 320 326 326 326 329 327 333 335 346 348 348 344 352 353 352 2 353 351 346 346 349 351 346 356 336 343 340 342 335
277 277 307 292 346 51 279 273 292 229 297 303 308 313 313 301 306 325 318 324 325 331 334 337 341 337 349 357 355 345 349 349 345 342 346 348 345 352 353 346 350 344 342 346
179 166 233 321 123 244 254 219 238 212 238 291 283 285 282 281 294 306 306 314 316 327 326 328 325 331 341 352 345 344 340 345 339 339 343 345 343 352 351 348 348 341 346 348
26 159 232 251 268 272 241 233 231 208 225 245 255 254 270 279 282 284 283 286 297 297 301 309 307 317 322 331 332 337 338 335 335 331 337 343 344 352 340 349 340 332 331 350
176 200 222 298 88 253 289 137 154 189 213 221 225 251 237 234 237 254 266 280 279 285 294 287 290 293 300 312 313 318 326 325 322 321 335 336 343 338 343 339 330 333 306 315